Huvudsida
METAR-TAF:

METAR-TAF

Flygplatser :

Kinloss flygplats

Kinloss, Skottland

latitud: 57-39N, longitud: 003-34W, höjd: 7 m

Aktuellt väderrapport

Denna rapport gjordes för 1 timme och 9 minuter sedan, klockan 08:50 UTC
Vind 8 kt från sydväst
Temperatur 10°C
Fuktighet 76%
Tryck 1023 hPa
Sikt 10 km eller mer

METAR: EGQK 200850Z AUTO 22008KT 9999 FEW048/// 10/06 Q1023

Tid: 09:59 (09:59 UTC)


TAF: saknas

Aktuella väderrapporter och prognoser från 4000 flygplatser (METAR- och TAF-rapporter).

De tillgängliga stationerna syns som gula och röda prickar på kartan.

För musen över prickarna för att se namnen på stationerna.

Klicka sedan för att få väderrapporter och prognoser.

För att ändra kartan: Klicka på de gröna knapparna med ett svart kors på för att zooma in; den gröna knappen med ett streck på för att zooma ut; eller på de gröna pilarna för angränsande kartor.


METAR-TAF: